PAL2131 RPLL-RPVI

Flight info

Callsign PAL2131
Flight time N/A
Altitude 29000
Route VERDE2R VERDE A461 SAJ W3 BEDER BEDER1N
Aircraft A321/M-SDE3FGHIRWY/LB1

Departure

Time 2026-05-05 12:51
Airport Ninoy Aquino International Airport (RPLL)

Arrival

Time N/A
Airport Iloilo International Airport (RPVI)
Time Latitude Longitude Altitude Speed Heading
2026-05-05 12:33 14.50780 121.01203 59 ft 0 kts 329°
2026-05-05 12:42 14.50778 121.01205 69 ft 3 kts 330°
2026-05-05 12:42 14.50760 121.01216 61 ft 4 kts 330°
2026-05-05 12:43 14.50737 121.01229 64 ft 3 kts 329°
2026-05-05 12:43 14.50719 121.01242 60 ft 4 kts 287°
2026-05-05 12:43 14.50722 121.01265 64 ft 4 kts 240°
2026-05-05 12:43 14.50735 121.01288 61 ft 4 kts 240°
2026-05-05 12:44 14.50748 121.01312 64 ft 4 kts 240°
2026-05-05 12:44 14.50761 121.01335 63 ft 2 kts 240°
2026-05-05 12:44 14.50762 121.01337 64 ft 2 kts 240°
2026-05-05 12:46 14.50750 121.01321 64 ft 5 kts 227°
2026-05-05 12:46 14.50706 121.01317 63 ft 8 kts 173°
2026-05-05 12:47 14.50651 121.01286 61 ft 11 kts 232°
2026-05-05 12:47 14.50604 121.01204 64 ft 15 kts 240°
2026-05-05 12:47 14.50544 121.01096 62 ft 18 kts 243°
2026-05-05 12:47 14.50476 121.00972 61 ft 22 kts 240°
2026-05-05 12:48 14.50394 121.00827 64 ft 23 kts 239°
2026-05-05 12:48 14.50308 121.00671 65 ft 27 kts 240°
2026-05-05 12:48 14.50229 121.00528 61 ft 22 kts 241°
2026-05-05 12:48 14.50149 121.00384 63 ft 25 kts 240°
2026-05-05 12:49 14.50058 121.00223 61 ft 27 kts 240°
2026-05-05 12:49 14.49974 121.00071 63 ft 18 kts 239°
2026-05-05 12:49 14.49899 120.99970 67 ft 18 kts 195°
2026-05-05 12:49 14.49811 121.00041 64 ft 18 kts 89°
2026-05-05 12:50 14.49834 121.00094 65 ft 0 kts 60°
2026-05-05 12:50 14.49834 121.00096 65 ft 0 kts 60°
2026-05-05 12:50 14.49837 121.00100 64 ft 3 kts 60°
2026-05-05 12:50 14.49921 121.00253 63 ft 60 kts 60°
2026-05-05 12:51 14.50247 121.00837 59 ft 125 kts 60°
2026-05-05 12:51 14.50773 121.01776 96 ft 172 kts 61°
2026-05-05 12:51 14.51351 121.02821 834 ft 165 kts 63°
2026-05-05 12:51 14.51906 121.03848 1594 ft 164 kts 63°
2026-05-05 12:52 14.52466 121.04893 2225 ft 169 kts 63°
2026-05-05 12:52 14.53050 121.05964 2689 ft 177 kts 62°
2026-05-05 12:52 14.53701 121.07131 2868 ft 199 kts 62°
2026-05-05 12:52 14.54427 121.08429 2992 ft 219 kts 62°
2026-05-05 12:53 14.55233 121.09871 3138 ft 244 kts 61°
2026-05-05 12:53 14.56090 121.11436 3632 ft 254 kts 66°
2026-05-05 12:53 14.56428 121.13223 4178 ft 260 kts 97°
2026-05-05 12:53 14.55752 121.14953 4769 ft 266 kts 129°
2026-05-05 12:54 14.53130 121.17711 6095 ft 271 kts 134°
2026-05-05 12:54 14.51781 121.19089 6718 ft 274 kts 134°
2026-05-05 12:54 14.50416 121.20489 7335 ft 278 kts 134°
2026-05-05 12:55 14.49039 121.21906 7984 ft 281 kts 133°
2026-05-05 12:55 14.47559 121.23230 8618 ft 286 kts 149°
2026-05-05 12:55 14.45649 121.23836 9219 ft 293 kts 176°
2026-05-05 12:55 14.43635 121.23437 9808 ft 301 kts 205°
2026-05-05 12:56 14.41972 121.22097 10236 ft 313 kts 225°
2026-05-05 12:56 14.40445 121.20388 10362 ft 334 kts 227°
2026-05-05 12:56 14.38850 121.18544 10477 ft 355 kts 227°
2026-05-05 12:56 14.37178 121.16592 10703 ft 369 kts 227°
2026-05-05 12:57 14.35466 121.14597 11173 ft 374 kts 227°
2026-05-05 12:57 14.33726 121.12585 11696 ft 377 kts 227°
2026-05-05 12:57 14.31966 121.10566 12216 ft 380 kts 227°
2026-05-05 12:57 14.30213 121.08565 12744 ft 384 kts 226°
2026-05-05 12:58 14.28378 121.06555 13265 ft 386 kts 221°
2026-05-05 12:58 14.26256 121.04854 13771 ft 387 kts 212°
2026-05-05 12:58 14.24018 121.03285 14224 ft 390 kts 213°
2026-05-05 12:58 14.21769 121.01701 14690 ft 393 kts 213°
2026-05-05 12:59 14.19481 121.00085 15167 ft 395 kts 213°
2026-05-05 12:59 14.17207 120.98480 15648 ft 397 kts 213°
2026-05-05 12:59 14.14923 120.96866 16112 ft 399 kts 213°
2026-05-05 13:00 14.10311 120.93614 17058 ft 404 kts 213°
2026-05-05 13:00 14.07941 120.92048 17512 ft 405 kts 206°
2026-05-05 13:01 13.99728 120.90585 18777 ft 407 kts 170°
2026-05-05 13:01 13.96961 120.91225 19175 ft 409 kts 165°
2026-05-05 13:01 13.94193 120.91941 19579 ft 411 kts 165°
2026-05-05 13:01 13.91410 120.92660 19971 ft 414 kts 165°
2026-05-05 13:02 13.88648 120.93373 20349 ft 416 kts 165°
2026-05-05 13:02 13.85795 120.94108 20731 ft 418 kts 166°
2026-05-05 13:02 13.82969 120.94835 21103 ft 420 kts 166°
2026-05-05 13:02 13.80126 120.95566 21463 ft 422 kts 166°
2026-05-05 13:03 13.77307 120.96288 21816 ft 424 kts 166°
2026-05-05 13:03 13.74434 120.97022 22174 ft 426 kts 166°
2026-05-05 13:03 13.71553 120.97758 22515 ft 428 kts 166°
2026-05-05 13:03 13.68655 120.98502 22857 ft 430 kts 166°
2026-05-05 13:04 13.65747 120.99248 23190 ft 432 kts 166°
2026-05-05 13:04 13.62825 120.99996 23508 ft 434 kts 166°
2026-05-05 13:04 13.59887 121.00746 23779 ft 436 kts 166°
2026-05-05 13:04 13.56942 121.01497 24052 ft 437 kts 166°
2026-05-05 13:05 13.53985 121.02250 24320 ft 439 kts 166°
2026-05-05 13:05 13.51006 121.02949 24579 ft 440 kts 171°
2026-05-05 13:05 13.47945 121.03206 24836 ft 442 kts 179°
2026-05-05 13:05 13.44863 121.03230 25100 ft 444 kts 179°
2026-05-05 13:06 13.41774 121.03260 25365 ft 445 kts 179°
2026-05-05 13:06 13.38664 121.03293 25633 ft 447 kts 179°
2026-05-05 13:06 13.35552 121.03326 25902 ft 448 kts 179°
2026-05-05 13:06 13.32422 121.03357 26157 ft 450 kts 179°
2026-05-05 13:07 13.29279 121.03387 26414 ft 452 kts 179°
2026-05-05 13:07 13.26129 121.03416 26673 ft 453 kts 179°
2026-05-05 13:07 13.22971 121.03445 26930 ft 455 kts 179°